RH
93 93 93 94 95 96 95 96 94 92 90 90 90 91 92 92 92 92 94 93 94 93 91 90 90 89 86
93 97 95 94 92 93 96 97 97 95 93 93 93 92 92 94 94 94 95 95 94 94 93 93 90 88 88
88 96 96 96 96 96 96 96 97 96 94 95 94 94 94 95 95 95 96 97 97 97 96 96 94 92 91
92 94 97 96 96 94 96 98 96 98 97 96 96 97 97 96 97 98 98 97 96 96 97 96 97 95 94
90 84 95 99 99 96 96 93 97 98 99 99 99 98 95 98 99 99 99 98 97 97 97 97 98 97 96
90 96 95 96 96 97 96 99 98 97 99 97 99 98 96 98 96 98 99 99 99 98 98 98 99 98 97
95 93 91 92 94 98 98 96 89 91 98 97 98 99 97 98 96 97 97 98 99 99 99 99 99 98 98
98 98 96 95 98 97 96 95 96 99 99 100 98 98 98 98 97 98 98 98 98 99 99 99 99 99 99
91 90 89 89 92 99 100 100 100 100 99 99 99 99 98 98 93 89 85 85 85 87 87 87 90 91 95
90 89 87 88 90 94 99 100 100 100 99 100 100 100 100 98 97 91 88 77 72 72 71 72 72 84 90
93 92 93 93 94 94 96 99 100 100 98 99 100 100 100 99 93 93 92 92 90 87 79 77 77 81 96
95 96 96 97 97 97 98 98 99 100 98 100 99 99 99 98 95 96 93 92 93 94 92 84 78 80 80
97 97 98 99 98 96 95 92 93 94 93 99 98 97 98 99 98 94 91 96 90 98 95 93 91 86 89
96 94 94 94 95 95 97 98 98 96 91 94 99 99 98 96 96 94 87 97 97 95 96 93 92 89 86
90 87 84 93 94 95 97 97 95 93 97 94 93 95 97 99 97 94 93 91 94 94 92 92 88 86 82
91 93 94 95 96 94 96 97 98 96 97 95 97 96 96 93 88 96 94 93 94 96 94 97 90 79 81
97 96 96 96 96 96 97 97 96 96 94 96 97 98 98 93 92 79 96 99 96 95 91 91 94 83 83
Wind_Speed
5 4 4 6 5 5 5 6 6 12 14 16 17 14 14 16 17 16 18 20 20 19 19 21 22 21 19
5 5 7 6 4 5 4 5 5 9 13 14 13 14 15 15 15 15 15 18 20 18 18 20 20 22 21
7 4 6 3 4 4 4 5 4 8 11 12 14 16 16 16 15 15 15 14 14 16 16 16 18 19 21
6 5 4 3 3 5 5 3 5 5 9 10 9 12 14 15 15 16 16 17 17 17 17 16 16 19 22
7 7 6 4 5 4 7 5 4 4 4 5 6 5 7 11 11 15 15 15 16 16 17 18 20 21 22
8 7 8 5 4 4 4 5 5 4 4 4 5 6 6 6 10 14 14 15 14 15 16 17 17 18 21
7 7 6 5 4 5 6 5 6 4 4 5 4 5 4 4 11 11 12 11 11 13 13 16 17 17 18
4 2 1 3 3 2 3 4 2 3 2 4 1 3 1 0 7 4 4 5 7 7 10 13 13 12 14
16 15 13 12 8 2 1 2 3 2 4 0 1 3 1 2 3 13 14 13 12 11 11 10 10 9 4
5 7 8 10 15 8 3 1 1 2 3 2 2 2 2 1 1 3 3 11 9 10 11 11 11 4 4
5 4 6 6 6 6 6 4 2 2 4 2 2 2 2 3 2 1 3 3 2 4 7 10 11 8 4
5 5 4 5 4 5 5 4 3 2 3 2 1 1 2 3 3 2 2 1 0 1 1 4 8 11 12
5 4 2 3 3 3 3 4 2 2 3 1 1 0 2 2 4 5 8 4 6 2 2 3 3 4 9
4 3 2 3 2 2 2 3 3 3 3 3 1 1 3 4 5 7 6 5 2 4 3 4 4 5 7
3 3 4 3 3 2 2 2 3 4 4 5 4 3 4 5 6 6 5 6 6 7 5 8 8 8 8
3 3 3 3 3 4 2 2 2 2 2 2 3 4 2 4 13 4 4 6 6 4 7 9 10 10 8
3 3 4 3 5 3 3 3 3 3 4 2 1 1 2 6 4 11 6 3 4 7 6 8 10 12 9
Wind_Direction
221 225 231 222 227 220 211 212 234 230 233 233 241 241 238 235 234 228 224 227 229 227 230 225 216 215 218
223 222 218 228 216 217 214 213 218 229 233 237 240 243 243 240 237 233 230 228 225 224 227 228 221 222 218
238 222 223 210 235 238 223 237 227 233 242 239 238 237 237 235 235 234 233 229 225 223 217 222 227 228 227
236 234 212 209 213 236 252 212 250 218 235 229 223 233 242 242 229 223 219 217 224 227 223 220 223 228 231
237 244 232 210 204 199 228 252 248 207 226 229 228 223 243 240 242 229 229 226 227 229 230 230 231 227 233
233 222 223 203 197 202 226 229 256 205 206 248 194 231 234 225 224 227 224 229 232 238 238 242 238 235 234
223 226 234 219 193 195 212 216 235 216 183 249 179 221 208 222 229 233 233 229 224 230 235 242 240 238 239
227 108 63 331 247 283 266 242 238 78 10 243 26 231 56 32 32 354 287 264 248 249 250 252 253 248 251
89 89 71 46 17 165 218 136 244 184 13 46 72 301 1 64 43 71 57 49 48 44 35 21 5 348 301
88 71 54 45 41 44 20 145 144 64 8 332 343 16 341 78 86 61 37 47 28 17 351 349 339 326 314
68 50 62 40 41 27 36 31 356 70 33 9 359 22 39 316 308 11 65 10 359 347 359 342 326 317 298
68 50 24 49 23 23 24 25 33 334 19 14 351 34 63 344 285 327 301 287 348 290 304 330 324 312 301
64 55 34 45 15 14 13 11 35 49 52 81 13 297 201 228 303 318 326 334 316 284 305 293 292 298 312
43 32 13 360 352 31 24 3 40 337 347 80 121 304 277 255 257 275 278 288 320 287 279 292 282 263 266
25 18 15 2 355 2 79 347 31 355 341 329 338 227 220 224 266 252 271 271 281 293 304 296 286 278 273
8 10 8 0 346 359 9 10 333 293 276 281 336 326 311 267 215 239 252 258 254 256 266 270 275 273 270
356 348 349 347 356 336 324 310 308 286 277 257 233 203 276 287 263 224 234 237 263 272 266 279 277 282 276